Вернуться в каталог

COSMOS 970 DEB

АктивенLEO
NORAD 64965·DEBRIS·🇷🇺 Russia

Запущен Dec 21, 1977 с Baikonur Cosmodrome

Loading…

Ближайшие Пролёты (ближайшие 24 часа)

TLE

СвежийSource: Space-Track

Эпоха: Sep 14, 2026, 08:02 UTC

1 64965U 77121CA  26257.33490153  .00000457  00000-0  42963-3 0  9991
2 64965  65.8149 127.1916 0107788  19.8842 340.6379 13.88402779114608

Отслеживайте COSMOS 970 DEB в реальном времени с AllMySat

Download on the App Store